This is the latest recevied weather packets stored in our database for station/object NT9G. If no packets are shown the sender has not sent any weather packets the latest 10 day(s).
| Time | Temp. | Humidity | Pressure | Rain* | Wind** | Luminosity | Snow |
|---|---|---|---|---|---|---|---|
| 1777158109 | 22.78° C | 32% | 1013.5 hPa | 0 mm | - | - | - |
| 1777157208 | 23.33° C | 33% | 1013.4 hPa | 0 mm | - | - | - |
| 1777156908 | 22.78° C | 34% | 1013.3 hPa | 0 mm | - | - | - |
| 1777156608 | 23.33° C | 34% | 1013.3 hPa | 0 mm | - | - | - |
| 1777156307 | 23.33° C | 34% | 1013.3 hPa | 0 mm | - | - | - |
| 1777156007 | 23.33° C | 32% | 1013.4 hPa | 0 mm | - | - | - |
| 1777155707 | 23.89° C | 31% | 1013.3 hPa | 0 mm | - | - | - |
| 1777155406 | 23.89° C | 31% | 1013.4 hPa | 0 mm | - | - | - |
| 1777155106 | 23.89° C | 34% | 1013.4 hPa | 0 mm | - | - | - |
| 1777154806 | 23.89° C | 33% | 1013.4 hPa | 0 mm | - | - | - |
| 1777154507 | 23.89° C | 32% | 1013.4 hPa | 0 mm | - | - | - |
| 1777154205 | 23.33° C | 34% | 1013.4 hPa | 0 mm | - | - | - |
| 1777153905 | 22.78° C | 32% | 1013.3 hPa | 0 mm | - | - | - |
| 1777153605 | 23.33° C | 35% | 1013.4 hPa | 0 mm | - | - | - |
| 1777153305 | 22.78° C | 35% | 1013.4 hPa | 0 mm | - | - | - |
| 1777153004 | 22.78° C | 35% | 1013.4 hPa | 0 mm | - | - | - |
| 1777152704 | 23.33° C | 34% | 1013.4 hPa | 0 mm | - | - | - |
| 1777151503 | 23.33° C | 31% | 1013.5 hPa | 0 mm | - | - | - |
| 1777151202 | 23.89° C | 33% | 1013.5 hPa | 0 mm | - | - | - |
| 1777150602 | 23.33° C | 32% | 1013.7 hPa | 0 mm | - | - | - |
| 1777150302 | 23.33° C | 33% | 1013.7 hPa | 0 mm | - | - | - |
| 1777150001 | 23.33° C | 34% | 1013.8 hPa | 0 mm | - | - | - |
| 1777149701 | 23.33° C | 33% | 1013.7 hPa | 0 mm | - | - | - |
| 1777149401 | 22.78° C | 31% | 1013.7 hPa | 0 mm | - | - | - |
| 1777149101 | 22.78° C | 33% | 1013.7 hPa | 0 mm | - | - | - |
* Rain since midnight (hover to see other rain measurements)
** Current wind speed in m/s (hover to see current wind gust speed)